Location: Goettingen
(51.5300°N, 9.9433°E)
Time: 05:34:50
(UTC+01:00)

ISS - Pass Details

Date: 09 November 2018
Orbit: 402 x 408 km, 51.6° (Epoch: 17 November)

Event Time Altitude Azimuth Distance (km) Brightness Sun altitude
Exits shadow 06:48:09 - 274° (W) 1,628 -1.4 -6.5°
Reaches altitude 10° 06:48:36 10° 270° (W) 1,465 -1.6 -6.4°
Maximum altitude 06:51:24 26° 212° (SSW) 840 -2.3 -6.0°
Drops below altitude 10° 06:54:11 10° 153° (SSE) 1,461 -0.2 -5.6°
Sets 06:56:27 0° 141° (SE) 2,320 1.2 -5.3°
